M I D A S
Marine Information and Data Acquisition System
Tripno 1698 of the Zeeleeuw from 2009-05-25 11:32:49 to 2009-05-25 13:15:00
Back to CruiseResearch ActivitiesStationsMapUnderway DataData graphs

EquipmentUnitsComments
TimeDGPSUTC
LatitudeDGPSDM.mWGS84
LongitudeDGPSDM.mWGS84
SpeedMeteo Stationm/sRelative wind speed
DirectionMeteo StationdegRelative wind direction
TemperatureMeteo Stationdeg CelciusAir temperature
PressureMeteo StationPaAtmospheric pressure
HumidityMeteo Station%Relative humidity
Missing or incorrect values are displayed as -999
Metereological data collected by the RV Zeeleeuw from 2009-05-25 07:24:38 to 2009-05-25 13:27:20
                                                                                    Next 1000 lines
Time Latitude Longitude Speed Direction Temperature Pressure Humidity
2009-05-25 07:24:48 51°13.663 2°55.955 1.4 234 17.5 101770 69
2009-05-25 07:24:53 51°13.664 2°55.953 1.1 277 17.5 101770 69
2009-05-25 07:24:58 51°13.664 2°55.951 0.8 322 17.5 101770 69
2009-05-25 07:25:03 51°13.665 2°55.948 0.6 280 17.5 101770 69
2009-05-25 07:25:08 51°13.666 2°55.945 0.4 252 17.5 101770 69
2009-05-25 07:25:13 51°13.667 2°55.942 0.3 283 17.5 101770 69
2009-05-25 07:25:18 51°13.667 2°55.939 0.1 252 17.5 101770 69
2009-05-25 07:25:23 51°13.668 2°55.936 0.1 276 17.5 101770 69
2009-05-25 07:25:28 51°13.669 2°55.932 0.1 251 17.5 101770 69
2009-05-25 07:25:33 51°13.671 2°55.928 0.5 285 17.5 101770 69
2009-05-25 07:25:38 51°13.672 2°55.924 0.3 342 17.5 101770 69
2009-05-25 07:25:43 51°13.673 2°55.92 0.2 343 17.5 101760 69
2009-05-25 07:25:48 51°13.674 2°55.916 0.2 233 17.5 101760 69
2009-05-25 07:25:53 51°13.676 2°55.912 0.9 278 17.5 101760 69
2009-05-25 07:25:58 51°13.677 2°55.907 1.5 31 17.5 101760 69
2009-05-25 07:26:03 51°13.679 2°55.902 1 287 17.5 101760 69
2009-05-25 07:26:08 51°13.681 2°55.898 0.9 30 17.5 101760 69
2009-05-25 07:26:13 51°13.683 2°55.893 2.7 277 17.6 101760 69
2009-05-25 07:26:18 51°13.685 2°55.888 1.9 37 17.6 101760 69
2009-05-25 07:26:23 51°13.686 2°55.883 2.2 277 17.6 101770 69
2009-05-25 07:26:28 51°13.688 2°55.878 2 320 17.6 101770 69
2009-05-25 07:26:33 51°13.69 2°55.873 2 281 17.6 101760 69
2009-05-25 07:26:38 51°13.692 2°55.868 1.9 321 17.6 101760 69
2009-05-25 07:26:43 51°13.693 2°55.862 2.3 322 17.6 101760 68
2009-05-25 07:26:48 51°13.694 2°55.857 2.3 40 17.6 101760 68
2009-05-25 07:26:53 51°13.696 2°55.851 1.7 281 17.6 101760 68
2009-05-25 07:26:58 51°13.697 2°55.845 1.1 38 17.6 101760 68
2009-05-25 07:27:03 51°13.698 2°55.839 1 283 17.6 101760 68
2009-05-25 07:27:08 51°13.698 2°55.833 0.9 256 17.6 101760 68
2009-05-25 07:27:13 51°13.699 2°55.826 1.9 281 17.6 101760 67
2009-05-25 07:27:18 51°13.7 2°55.82 1.7 237 17.6 101760 67
2009-05-25 07:27:23 51°13.7 2°55.814 1.9 280 17.6 101760 67
2009-05-25 07:27:28 51°13.701 2°55.808 2.4 41 17.6 101760 67
2009-05-25 07:27:33 51°13.701 2°55.802 2.2 283 17.6 101760 68
2009-05-25 07:27:38 51°13.702 2°55.796 2 33 17.6 101760 68
2009-05-25 07:27:43 51°13.702 2°55.79 2.3 22 17.6 101760 68
2009-05-25 07:27:48 51°13.703 2°55.784 2.4 315 17.6 101760 68
2009-05-25 07:27:53 51°13.703 2°55.778 2.2 278 17.6 101760 68
2009-05-25 07:27:58 51°13.703 2°55.772 2.4 317 17.6 101760 68
2009-05-25 07:28:03 51°13.704 2°55.767 2.5 281 17.6 101760 68
2009-05-25 07:28:08 51°13.704 2°55.762 2.4 324 17.6 101760 68
2009-05-25 07:28:12 51°13.704 2°55.758 2.7 281 17.6 101760 68
2009-05-25 07:28:18 51°13.705 2°55.752 3.1 316 17.6 101760 68
2009-05-25 07:28:23 51°13.705 2°55.748 2.3 281 17.6 101760 68
2009-05-25 07:28:27 51°13.705 2°55.745 2.2 324 17.6 101760 68
2009-05-25 07:28:32 51°13.705 2°55.742 3.7 278 17.6 101760 67
2009-05-25 07:28:37 51°13.705 2°55.74 4.1 322 17.6 101760 67
2009-05-25 07:28:42 51°13.706 2°55.739 3.7 323 17.6 101760 67
2009-05-25 07:28:47 51°13.706 2°55.74 4.3 331 17.6 101760 67
2009-05-25 07:28:52 51°13.706 2°55.74 4.2 280 17.6 101760 67
2009-05-25 07:28:56 51°13.707 2°55.741 3.7 338 17.6 101760 67
2009-05-25 07:29:01 51°13.708 2°55.743 3.5 278 17.5 101760 67
2009-05-25 07:29:07 51°13.709 2°55.745 3.5 342 17.5 101760 67
2009-05-25 07:29:11 51°13.71 2°55.746 2.9 278 17.5 101750 67
2009-05-25 07:29:16 51°13.711 2°55.748 3.7 349 17.5 101750 67
2009-05-25 07:29:20 51°13.712 2°55.749 3.4 279 17.5 101750 67
2009-05-25 07:29:26 51°13.713 2°55.75 3.3 353 17.5 101750 67
2009-05-25 07:29:31 51°13.713 2°55.75 3.7 360 17.4 101750 67
2009-05-25 07:29:35 51°13.713 2°55.75 3.7 359 17.4 101750 67
2009-05-25 07:29:40 51°13.713 2°55.75 3.1 5 17.4 101750 67
2009-05-25 07:29:45 51°13.712 2°55.749 3.1 15 17.4 101750 67
2009-05-25 07:29:50 51°13.711 2°55.748 3.1 11 17.4 101750 67
2009-05-25 07:29:55 51°13.71 2°55.746 3.5 17 17.4 101750 67
2009-05-25 07:29:59 51°13.71 2°55.746 3.3 14 17.3 101760 68
2009-05-25 07:30:04 51°13.709 2°55.744 4 6 17.3 101760 68
2009-05-25 07:30:09 51°13.708 2°55.743 3 10 17.3 101750 68
2009-05-25 07:30:15 51°13.707 2°55.742 3.1 8 17.3 101750 68
2009-05-25 07:30:20 51°13.707 2°55.741 2.9 4 17.3 101750 68
2009-05-25 07:30:25 51°13.707 2°55.74 2.6 7 17.3 101750 68
2009-05-25 07:30:30 51°13.707 2°55.74 2.5 4 17.2 101760 68
2009-05-25 07:30:35 51°13.709 2°55.74 2.8 11 17.2 101760 68
2009-05-25 07:30:40 51°13.71 2°55.74 3.1 17 17.2 101750 68
2009-05-25 07:30:45 51°13.712 2°55.739 3.6 20 17.2 101750 68
2009-05-25 07:30:50 51°13.715 2°55.738 3.8 25 17.2 101760 69
2009-05-25 07:30:55 51°13.718 2°55.737 3.7 29 17.2 101760 69
2009-05-25 07:30:59 51°13.721 2°55.735 3.3 16 17.2 101760 69
2009-05-25 07:31:04 51°13.724 2°55.733 2.9 19 17.2 101760 69
2009-05-25 07:31:09 51°13.728 2°55.73 3.4 2 17.2 101760 69
2009-05-25 07:31:14 51°13.732 2°55.727 4.2 4 17.2 101760 69
2009-05-25 07:31:19 51°13.737 2°55.722 2.7 15 17.2 101760 69
2009-05-25 07:31:23 51°13.741 2°55.719 2.5 11 17.2 101760 69
2009-05-25 07:31:29 51°13.747 2°55.713 3 1 17.2 101750 69
2009-05-25 07:31:34 51°13.752 2°55.708 2.8 14 17.2 101750 69
2009-05-25 07:31:39 51°13.758 2°55.702 2 2 17.2 101760 69
2009-05-25 07:31:44 51°13.764 2°55.696 1.9 6 17.2 101760 69
2009-05-25 07:31:49 51°13.77 2°55.69 2.5 10 17.1 101760 69
2009-05-25 07:31:54 51°13.776 2°55.684 2.1 15 17.1 101760 69
2009-05-25 07:31:59 51°13.783 2°55.677 2.5 352 17.1 101760 69
2009-05-25 07:32:04 51°13.79 2°55.671 2.1 344 17.1 101760 69
2009-05-25 07:32:09 51°13.797 2°55.664 2.2 16 17.1 101760 69
2009-05-25 07:32:14 51°13.804 2°55.658 2.2 2 17.1 101760 69
2009-05-25 07:32:19 51°13.812 2°55.652 2.2 287 17.1 101760 70
2009-05-25 07:32:24 51°13.819 2°55.645 2.2 337 17.1 101760 70
2009-05-25 07:32:29 51°13.827 2°55.639 1.6 281 17.1 101760 70
2009-05-25 07:32:34 51°13.835 2°55.633 1.8 350 17.1 101760 70
2009-05-25 07:32:39 51°13.843 2°55.627 1.5 282 17.1 101760 70
2009-05-25 07:32:43 51°13.849 2°55.622 2.1 332 17.1 101760 70
2009-05-25 07:32:49 51°13.859 2°55.615 3.1 279 17.1 101760 70
2009-05-25 07:32:54 51°13.867 2°55.609 3.1 345 17.1 101760 70
2009-05-25 07:32:59 51°13.875 2°55.603 3.3 351 17.1 101760 70
2009-05-25 07:33:04 51°13.884 2°55.597 3.8 355 17.1 101760 70
2009-05-25 07:33:09 51°13.892 2°55.592 4.4 355 17.1 101760 70
2009-05-25 07:33:14 51°13.901 2°55.586 3 356 17.1 101760 70
2009-05-25 07:33:19 51°13.909 2°55.58 3.6 278 17.1 101760 70
2009-05-25 07:33:24 51°13.917 2°55.573 2.5 354 17.1 101760 70
2009-05-25 07:33:29 51°13.926 2°55.566 2.4 353 17.1 101760 70
2009-05-25 07:33:34 51°13.934 2°55.559 3.1 356 17.1 101760 70
2009-05-25 07:33:39 51°13.942 2°55.553 3.1 5 17.1 101760 70
2009-05-25 07:33:44 51°13.951 2°55.546 3.6 7 17.1 101760 70
2009-05-25 07:33:48 51°13.958 2°55.541 4.5 11 17.1 101760 70
2009-05-25 07:33:54 51°13.968 2°55.533 4.1 11 17.1 101760 70
2009-05-25 07:33:59 51°13.977 2°55.526 3.5 7 17.1 101760 70
2009-05-25 07:34:04 51°13.986 2°55.519 3.4 346 17.1 101760 70
2009-05-25 07:34:09 51°13.996 2°55.512 5 349 17.1 101760 70
2009-05-25 07:34:14 51°14.005 2°55.505 5.2 352 17.1 101760 70
2009-05-25 07:34:19 51°14.015 2°55.498 5 354 17 101750 70
2009-05-25 07:34:24 51°14.025 2°55.49 4.1 347 17 101750 70
2009-05-25 07:34:29 51°14.035 2°55.483 4.3 354 17 101760 71
2009-05-25 07:34:34 51°14.045 2°55.475 5.6 355 17 101760 71
2009-05-25 07:34:39 51°14.055 2°55.467 4.4 352 17 101760 71
2009-05-25 07:34:44 51°14.065 2°55.46 4.2 359 17 101760 71
2009-05-25 07:34:49 51°14.075 2°55.452 4 1 17 101760 70
2009-05-25 07:34:54 51°14.085 2°55.444 4.6 359 17 101760 70
2009-05-25 07:34:59 51°14.095 2°55.435 3.7 4 17 101760 71
2009-05-25 07:35:04 51°14.105 2°55.427 3.6 -999 17 101760 71
2009-05-25 07:35:09 51°14.116 2°55.419 2.9 359 17 101760 70
2009-05-25 07:35:14 51°14.126 2°55.411 4.3 347 17 101760 70
2009-05-25 07:35:19 51°14.136 2°55.403 3.2 356 17 101760 70
2009-05-25 07:35:24 51°14.147 2°55.395 4.1 355 17 101760 70
2009-05-25 07:35:29 51°14.157 2°55.387 4.2 358 16.9 101760 70
2009-05-25 07:35:34 51°14.168 2°55.379 3.3 355 16.9 101760 70
2009-05-25 07:35:39 51°14.178 2°55.37 2.9 354 16.9 101760 71
2009-05-25 07:35:44 51°14.188 2°55.361 4.3 344 16.9 101760 71
2009-05-25 07:35:49 51°14.198 2°55.351 3.5 351 16.9 101760 71
2009-05-25 07:35:54 51°14.208 2°55.341 3.3 349 16.9 101760 71
2009-05-25 07:35:59 51°14.217 2°55.329 4.3 354 16.9 101760 71
2009-05-25 07:36:04 51°14.227 2°55.318 4.2 351 16.9 101760 71
2009-05-25 07:36:09 51°14.235 2°55.306 4.3 357 16.9 101760 72
2009-05-25 07:36:14 51°14.244 2°55.293 3.3 356 16.9 101760 72
2009-05-25 07:36:19 51°14.252 2°55.28 4.7 355 16.9 101760 72
2009-05-25 07:36:24 51°14.261 2°55.267 4.6 355 16.9 101760 72
2009-05-25 07:36:29 51°14.268 2°55.253 4.6 359 16.9 101750 71
2009-05-25 07:36:35 51°14.278 2°55.236 3.8 357 16.9 101750 71
2009-05-25 07:36:39 51°14.284 2°55.225 4.2 355 16.9 101760 71
2009-05-25 07:36:44 51°14.292 2°55.21 4 -999 16.9 101760 71
2009-05-25 07:36:49 51°14.3 2°55.195 3.4 -999 16.9 101750 71
2009-05-25 07:36:55 51°14.309 2°55.177 4.4 360 16.9 101750 71
2009-05-25 07:36:59 51°14.314 2°55.165 4.1 -999 16.9 101750 71
2009-05-25 07:37:03 51°14.32 2°55.152 3.9 1 16.9 101750 71
2009-05-25 07:37:09 51°14.328 2°55.133 3.8 2 16.9 101750 72
2009-05-25 07:37:15 51°14.336 2°55.114 3.4 3 16.9 101750 72
2009-05-25 07:37:19 51°14.341 2°55.101 3.4 3 16.9 101760 72
2009-05-25 07:37:23 51°14.345 2°55.088 3.6 7 16.9 101760 72
2009-05-25 07:37:29 51°14.353 2°55.068 2.9 3 16.9 101750 72
2009-05-25 07:37:34 51°14.358 2°55.051 3.1 4 16.9 101750 72
2009-05-25 07:37:39 51°14.364 2°55.033 3.3 6 16.9 101750 72
2009-05-25 07:37:44 51°14.37 2°55.016 3.4 5 16.9 101750 72
2009-05-25 07:37:49 51°14.375 2°54.998 2.7 5 16.9 101750 73
2009-05-25 07:37:54 51°14.379 2°54.98 2.4 -999 16.9 101750 73
2009-05-25 07:37:59 51°14.384 2°54.961 2.8 3 16.9 101750 72
2009-05-25 07:38:04 51°14.388 2°54.942 2.5 5 16.9 101750 72
2009-05-25 07:38:10 51°14.394 2°54.919 3 2 16.8 101750 72
2009-05-25 07:38:14 51°14.398 2°54.904 3.5 2 16.8 101750 72
2009-05-25 07:38:20 51°14.405 2°54.882 3.3 357 16.8 101750 72
2009-05-25 07:38:24 51°14.41 2°54.868 3.7 357 16.8 101750 72
2009-05-25 07:38:29 51°14.418 2°54.851 3.5 353 16.8 101760 72
2009-05-25 07:38:34 51°14.425 2°54.834 3.6 356 16.8 101760 72
2009-05-25 07:38:39 51°14.433 2°54.818 4.2 351 16.8 101750 72
2009-05-25 07:38:45 51°14.443 2°54.798 4.4 353 16.8 101750 72
2009-05-25 07:38:49 51°14.449 2°54.784 4.5 354 16.8 101750 72
2009-05-25 07:38:54 51°14.456 2°54.765 4.1 356 16.8 101750 72
2009-05-25 07:39:00 51°14.465 2°54.744 4 354 16.8 101750 73
2009-05-25 07:39:04 51°14.471 2°54.729 4 354 16.8 101750 73
2009-05-25 07:39:09 51°14.478 2°54.71 4.1 355 16.7 101750 73
2009-05-25 07:39:14 51°14.486 2°54.691 4 354 16.7 101750 73
2009-05-25 07:39:20 51°14.494 2°54.668 3.6 354 16.7 101750 72
2009-05-25 07:39:24 51°14.499 2°54.651 3.5 354 16.7 101750 72
2009-05-25 07:39:29 51°14.506 2°54.632 3.6 353 16.7 101750 73
2009-05-25 07:39:34 51°14.513 2°54.611 3.5 355 16.7 101750 73
2009-05-25 07:39:39 51°14.519 2°54.591 4.2 353 16.7 101750 73
2009-05-25 07:39:44 51°14.525 2°54.57 4.1 354 16.7 101750 73
2009-05-25 07:39:49 51°14.531 2°54.549 3.2 353 16.7 101750 73
2009-05-25 07:39:54 51°14.537 2°54.528 3.4 352 16.7 101750 73
2009-05-25 07:39:59 51°14.543 2°54.507 3.7 350 16.6 101750 73
2009-05-25 07:40:04 51°14.548 2°54.485 3.7 348 16.6 101750 73
2009-05-25 07:40:09 51°14.554 2°54.464 3.9 349 16.6 101760 74
2009-05-25 07:40:14 51°14.559 2°54.442 4.4 349 16.6 101760 74
2009-05-25 07:40:19 51°14.564 2°54.42 3.8 352 16.6 101760 74
2009-05-25 07:40:24 51°14.569 2°54.399 3.7 352 16.6 101760 74
2009-05-25 07:40:29 51°14.574 2°54.377 4.3 352 16.6 101760 75
2009-05-25 07:40:34 51°14.58 2°54.355 3.7 351 16.6 101760 75
2009-05-25 07:40:39 51°14.585 2°54.333 3.8 351 16.6 101750 75
2009-05-25 07:40:44 51°14.59 2°54.311 3.8 352 16.6 101750 75
2009-05-25 07:40:49 51°14.595 2°54.289 4.6 353 16.5 101760 75
2009-05-25 07:40:54 51°14.6 2°54.267 4.5 354 16.5 101760 75
2009-05-25 07:40:59 51°14.605 2°54.246 4.8 351 16.5 101760 76
2009-05-25 07:41:04 51°14.61 2°54.224 4.8 350 16.5 101760 76
2009-05-25 07:41:09 51°14.615 2°54.202 4.7 350 16.5 101760 76
2009-05-25 07:41:14 51°14.62 2°54.18 3.9 350 16.5 101760 76
2009-05-25 07:41:19 51°14.624 2°54.157 4 350 16.5 101760 77
2009-05-25 07:41:24 51°14.628 2°54.135 4.4 352 16.5 101760 77
2009-05-25 07:41:29 51°14.632 2°54.111 4.3 352 16.4 101760 78
2009-05-25 07:41:34 51°14.636 2°54.088 3.7 351 16.4 101760 78
2009-05-25 07:41:39 51°14.64 2°54.064 3.9 350 16.4 101760 78
2009-05-25 07:41:44 51°14.643 2°54.04 4 352 16.4 101760 78
2009-05-25 07:41:49 51°14.646 2°54.015 4.1 352 16.4 101760 79
2009-05-25 07:41:54 51°14.649 2°53.991 4.7 351 16.4 101760 79
2009-05-25 07:41:59 51°14.652 2°53.966 4.7 278 16.4 101760 80
2009-05-25 07:42:04 51°14.655 2°53.94 4.1 350 16.4 101760 80
2009-05-25 07:42:09 51°14.658 2°53.914 4.7 279 16.3 101760 81
2009-05-25 07:42:14 51°14.661 2°53.888 4.3 350 16.3 101760 81
2009-05-25 07:42:20 51°14.665 2°53.857 3.3 352 16.3 101760 81
2009-05-25 07:42:24 51°14.667 2°53.836 4.3 351 16.3 101760 81
2009-05-25 07:42:29 51°14.67 2°53.809 4.5 352 16.2 101760 82
2009-05-25 07:42:34 51°14.673 2°53.782 4.6 353 16.2 101760 82
2009-05-25 07:42:39 51°14.676 2°53.756 4.7 352 16.2 101760 82
2009-05-25 07:42:44 51°14.679 2°53.729 4.4 352 16.2 101760 82
2009-05-25 07:42:49 51°14.682 2°53.702 4.4 354 16.1 101760 83
2009-05-25 07:42:54 51°14.684 2°53.675 4.4 351 16.1 101760 83
2009-05-25 07:42:59 51°14.687 2°53.648 4.5 354 16.1 101760 83
2009-05-25 07:43:04 51°14.69 2°53.622 4.6 355 16.1 101760 83
2009-05-25 07:43:09 51°14.693 2°53.595 4.7 353 16.1 101760 84
2009-05-25 07:43:14 51°14.696 2°53.568 5 355 16.1 101760 84
2009-05-25 07:43:19 51°14.699 2°53.541 4.4 354 16 101760 84
2009-05-25 07:43:24 51°14.702 2°53.515 5 357 16 101760 84
2009-05-25 07:43:29 51°14.705 2°53.488 4.6 355 15.9 101760 84
2009-05-25 07:43:34 51°14.708 2°53.461 5.1 356 15.9 101760 84
2009-05-25 07:43:39 51°14.711 2°53.435 5.2 357 15.9 101760 84
2009-05-25 07:43:44 51°14.714 2°53.408 5 356 15.9 101760 84
2009-05-25 07:43:49 51°14.717 2°53.381 4.6 356 15.8 101760 85
2009-05-25 07:43:54 51°14.72 2°53.354 5 356 15.8 101760 85
2009-05-25 07:43:59 51°14.723 2°53.327 4.2 355 15.8 101760 85
2009-05-25 07:44:04 51°14.726 2°53.3 4.2 355 15.8 101760 85
2009-05-25 07:44:09 51°14.729 2°53.273 5 355 15.7 101760 85
2009-05-25 07:44:14 51°14.732 2°53.246 4.6 356 15.7 101760 85
2009-05-25 07:44:20 51°14.736 2°53.214 5 356 15.7 101760 86
2009-05-25 07:44:24 51°14.739 2°53.193 4.3 356 15.7 101760 86
2009-05-25 07:44:29 51°14.742 2°53.166 4.5 356 15.6 101760 86
2009-05-25 07:44:34 51°14.745 2°53.139 5.1 354 15.6 101760 86
2009-05-25 07:44:39 51°14.748 2°53.112 4.4 355 15.6 101760 86
2009-05-25 07:44:44 51°14.752 2°53.085 5.1 355 15.6 101760 86
2009-05-25 07:44:49 51°14.755 2°53.058 4.5 356 15.6 101760 86
2009-05-25 07:44:54 51°14.759 2°53.031 4.7 353 15.6 101760 86
2009-05-25 07:44:59 51°14.762 2°53.004 4.7 355 15.5 101760 87
2009-05-25 07:45:04 51°14.766 2°52.977 4.4 355 15.5 101760 87
2009-05-25 07:45:09 51°14.769 2°52.95 4.9 354 15.5 101760 87
2009-05-25 07:45:14 51°14.772 2°52.923 4.6 356 15.5 101760 87
2009-05-25 07:45:19 51°14.776 2°52.896 4.7 355 15.5 101760 87
2009-05-25 07:45:24 51°14.779 2°52.868 4.6 357 15.5 101760 87
2009-05-25 07:45:29 51°14.783 2°52.841 4.7 354 15.5 101760 87
2009-05-25 07:45:34 51°14.786 2°52.814 4.8 356 15.5 101760 87
2009-05-25 07:45:39 51°14.79 2°52.787 4.4 355 15.4 101760 85
2009-05-25 07:45:44 51°14.793 2°52.76 4.7 356 15.4 101760 85
2009-05-25 07:45:49 51°14.797 2°52.733 5 356 15.4 101760 85
2009-05-25 07:45:54 51°14.8 2°52.706 4.6 357 15.4 101760 85
2009-05-25 07:45:59 51°14.804 2°52.679 4.9 359 15.4 101760 85
2009-05-25 07:46:04 51°14.808 2°52.652 4.8 359 15.4 101760 85
2009-05-25 07:46:09 51°14.811 2°52.625 5.1 359 15.4 101760 85
2009-05-25 07:46:14 51°14.815 2°52.598 4.7 358 15.4 101760 85
2009-05-25 07:46:19 51°14.819 2°52.571 4.5 355 15.3 101760 85
2009-05-25 07:46:24 51°14.822 2°52.544 4.4 353 15.3 101760 85
2009-05-25 07:46:29 51°14.826 2°52.517 4.3 356 15.3 101760 86
2009-05-25 07:46:34 51°14.83 2°52.49 4.6 354 15.3 101760 86
2009-05-25 07:46:40 51°14.834 2°52.457 4.2 353 15.3 101760 86
2009-05-25 07:46:44 51°14.837 2°52.436 4.4 355 15.3 101760 86
2009-05-25 07:46:49 51°14.841 2°52.409 4.3 355 15.3 101760 86
2009-05-25 07:46:54 51°14.845 2°52.382 4.1 357 15.3 101760 86
2009-05-25 07:47:00 51°14.849 2°52.349 5 357 15.3 101760 87
2009-05-25 07:47:04 51°14.852 2°52.328 4.6 357 15.3 101760 87
2009-05-25 07:47:09 51°14.856 2°52.301 5.2 356 15.3 101760 88
2009-05-25 07:47:14 51°14.86 2°52.274 4.7 354 15.3 101760 88
2009-05-25 07:47:19 51°14.863 2°52.247 4.6 358 15.3 101770 88
2009-05-25 07:47:24 51°14.867 2°52.22 5 352 15.3 101770 88
2009-05-25 07:47:29 51°14.871 2°52.193 4.9 358 15.3 101770 88
2009-05-25 07:47:34 51°14.874 2°52.166 4.4 357 15.3 101770 88
2009-05-25 07:47:39 51°14.878 2°52.138 4.6 356 15.3 101760 88
2009-05-25 07:47:44 51°14.882 2°52.111 4.6 357 15.3 101760 88
2009-05-25 07:47:49 51°14.886 2°52.084 4.8 358 15.2 101770 88
2009-05-25 07:47:54 51°14.889 2°52.057 4.9 357 15.2 101770 88
2009-05-25 07:47:59 51°14.893 2°52.03 5 357 15.2 101760 88
2009-05-25 07:48:04 51°14.897 2°52.003 5 358 15.2 101760 88
2009-05-25 07:48:09 51°14.9 2°51.975 4.8 359 15.2 101770 88
2009-05-25 07:48:14 51°14.904 2°51.948 4.9 357 15.2 101770 88
2009-05-25 07:48:19 51°14.908 2°51.921 5.1 358 15.2 101760 88
2009-05-25 07:48:24 51°14.912 2°51.894 4.6 358 15.2 101760 88
2009-05-25 07:48:29 51°14.915 2°51.866 4.8 357 15.2 101770 89
2009-05-25 07:48:34 51°14.919 2°51.839 4.7 357 15.2 101770 89
2009-05-25 07:48:39 51°14.923 2°51.812 4.6 355 15.2 101760 88
2009-05-25 07:48:44 51°14.927 2°51.785 5 353 15.2 101760 88
2009-05-25 07:48:49 51°14.929 2°51.757 4.8 1 15.2 101760 88
2009-05-25 07:48:54 51°14.933 2°51.73 4.2 357 15.2 101760 88
2009-05-25 07:48:59 51°14.933 2°51.702 3.9 356 15.2 101760 89
2009-05-25 07:49:04 51°14.935 2°51.674 3.6 358 15.2 101760 89
2009-05-25 07:49:09 51°14.935 2°51.645 3.9 358 15.2 101760 89
2009-05-25 07:49:14 51°14.935 2°51.617 3.5 356 15.2 101760 89
2009-05-25 07:49:19 51°14.935 2°51.588 3.4 355 15.2 101760 89
2009-05-25 07:49:24 51°14.934 2°51.56 3.1 356 15.2 101760 89
2009-05-25 07:49:29 51°14.933 2°51.531 3.2 1 15.2 101770 89
2009-05-25 07:49:34 51°14.932 2°51.502 3.3 357 15.2 101770 89
2009-05-25 07:49:39 51°14.931 2°51.473 3 356 15.1 101770 89
2009-05-25 07:49:44 51°14.93 2°51.445 3.6 355 15.1 101770 89
2009-05-25 07:49:49 51°14.928 2°51.416 2.9 355 15.1 101770 89
2009-05-25 07:49:54 51°14.926 2°51.387 3.1 355 15.1 101770 89
2009-05-25 07:49:59 51°14.924 2°51.358 2.9 354 15.1 101770 89
2009-05-25 07:50:04 51°14.922 2°51.329 3.5 347 15.1 101770 89
2009-05-25 07:50:09 51°14.92 2°51.3 2.7 354 15.1 101770 89
2009-05-25 07:50:14 51°14.918 2°51.272 3.2 355 15.1 101770 89
2009-05-25 07:50:19 51°14.916 2°51.243 3.3 357 15.1 101770 89
2009-05-25 07:50:24 51°14.916 2°51.214 3.4 350 15.1 101770 89
2009-05-25 07:50:29 51°14.915 2°51.185 3.4 356 15.1 101770 89
2009-05-25 07:50:34 51°14.914 2°51.156 3.6 358 15.1 101770 89
2009-05-25 07:50:39 51°14.914 2°51.129 3.1 357 15.1 101770 89
2009-05-25 07:50:44 51°14.914 2°51.105 3 359 15.1 101770 89
2009-05-25 07:50:49 51°14.913 2°51.081 2.3 9 15.1 101770 89
2009-05-25 07:50:54 51°14.912 2°51.06 2.2 9 15.1 101770 89
2009-05-25 07:50:59 51°14.911 2°51.039 1.9 19 15.1 101770 89
2009-05-25 07:51:04 51°14.91 2°51.02 1.8 20 15.1 101770 89
2009-05-25 07:51:09 51°14.908 2°51.002 1.7 20 15.1 101770 89
2009-05-25 07:51:14 51°14.906 2°50.986 1.7 24 15.1 101770 89
2009-05-25 07:51:19 51°14.904 2°50.97 1.7 30 15.1 101770 89
2009-05-25 07:51:24 51°14.903 2°50.955 1.7 32 15.1 101770 89
2009-05-25 07:51:28 51°14.901 2°50.944 2.3 33 15.1 101770 89
2009-05-25 07:51:34 51°14.9 2°50.928 2.5 31 15.1 101770 89
2009-05-25 07:51:39 51°14.899 2°50.916 3 31 15.1 101770 89
2009-05-25 07:51:44 51°14.898 2°50.905 3.1 35 15.1 101780 89
2009-05-25 07:51:48 51°14.897 2°50.897 3.4 32 15.1 101780 89
2009-05-25 07:51:54 51°14.897 2°50.886 3.3 29 15.1 101780 89
2009-05-25 07:51:59 51°14.897 2°50.877 3.3 29 15.1 101780 89
2009-05-25 07:52:04 51°14.896 2°50.868 3.2 31 15.1 101770 89
2009-05-25 07:52:09 51°14.896 2°50.86 3.7 30 15.1 101770 89
2009-05-25 07:52:14 51°14.896 2°50.853 3.8 30 15.1 101770 89
2009-05-25 07:52:19 51°14.895 2°50.846 3.9 30 15.1 101770 89
2009-05-25 07:52:24 51°14.895 2°50.84 3.6 32 15.1 101780 89
2009-05-25 07:52:29 51°14.894 2°50.834 3.6 28 15.1 101780 89
2009-05-25 07:52:34 51°14.893 2°50.827 3.5 33 15.1 101770 89
2009-05-25 07:52:39 51°14.893 2°50.821 3.2 31 15.1 101770 89
2009-05-25 07:52:44 51°14.892 2°50.815 3.5 31 15.1 101770 89
2009-05-25 07:52:49 51°14.892 2°50.808 3 28 15.1 101770 89
2009-05-25 07:52:54 51°14.891 2°50.802 3 27 15.1 101780 89
2009-05-25 07:52:59 51°14.891 2°50.796 3.4 28 15.1 101780 89
2009-05-25 07:53:04 51°14.89 2°50.789 3.6 27 15.1 101780 89
2009-05-25 07:53:09 51°14.89 2°50.783 3.8 25 15.1 101780 89
2009-05-25 07:53:13 51°14.89 2°50.778 3.8 23 15.1 101780 89
2009-05-25 07:53:19 51°14.89 2°50.77 3.5 24 15.1 101780 89
2009-05-25 07:53:24 51°14.89 2°50.764 3.5 19 15.2 101780 90
2009-05-25 07:53:29 51°14.89 2°50.757 3.7 19 15.2 101780 90
2009-05-25 07:53:34 51°14.89 2°50.751 3.7 21 15.2 101780 89
2009-05-25 07:53:40 51°14.89 2°50.744 3.9 22 15.2 101780 89
2009-05-25 07:53:44 51°14.891 2°50.74 3.9 15 15.2 101770 89
2009-05-25 07:53:49 51°14.891 2°50.734 3.5 14 15.2 101770 89
2009-05-25 07:53:54 51°14.891 2°50.728 3.5 13 15.2 101770 89
2009-05-25 07:53:59 51°14.892 2°50.723 3.8 13 15.2 101770 89
2009-05-25 07:54:04 51°14.892 2°50.717 4.3 10 15.2 101780 89
2009-05-25 07:54:09 51°14.893 2°50.712 3.8 11 15.2 101780 89
2009-05-25 07:54:13 51°14.893 2°50.707 3.7 8 15.2 101770 90
2009-05-25 07:54:19 51°14.894 2°50.701 3.9 7 15.2 101770 90
2009-05-25 07:54:24 51°14.895 2°50.696 3.3 5 15.2 101780 90
2009-05-25 07:54:29 51°14.897 2°50.691 3.5 3 15.2 101780 90
2009-05-25 07:54:34 51°14.898 2°50.686 3.6 4 15.2 101780 90
2009-05-25 07:54:39 51°14.899 2°50.681 3.8 3 15.2 101780 90
2009-05-25 07:54:44 51°14.901 2°50.676 4.1 1 15.2 101780 90
2009-05-25 07:54:49 51°14.902 2°50.671 3.6 3 15.2 101780 90
2009-05-25 07:54:54 51°14.904 2°50.667 4.2 359 15.2 101780 90
2009-05-25 07:54:59 51°14.907 2°50.662 4.1 358 15.2 101780 90
2009-05-25 07:55:04 51°14.909 2°50.658 4.2 359 15.2 101780 89
2009-05-25 07:55:08 51°14.911 2°50.654 4.1 359 15.2 101780 89
2009-05-25 07:55:14 51°14.914 2°50.649 4.8 355 15.2 101770 90
2009-05-25 07:55:19 51°14.916 2°50.645 4.7 355 15.2 101770 90
2009-05-25 07:55:24 51°14.919 2°50.641 4.9 354 15.2 101770 90
2009-05-25 07:55:29 51°14.922 2°50.637 4.4 354 15.2 101770 90
2009-05-25 07:55:34 51°14.925 2°50.634 4.8 354 15.2 101770 90
2009-05-25 07:55:39 51°14.928 2°50.631 5.5 353 15.2 101770 90
2009-05-25 07:55:44 51°14.931 2°50.627 5 352 15.1 101770 90
2009-05-25 07:55:49 51°14.934 2°50.625 4.9 279 15.1 101770 90
2009-05-25 07:55:54 51°14.938 2°50.622 4.8 347 15.1 101770 90
2009-05-25 07:55:59 51°14.941 2°50.619 5.2 279 15.1 101770 90
2009-05-25 07:56:04 51°14.944 2°50.617 5.5 347 15.1 101770 90
2009-05-25 07:56:09 51°14.948 2°50.615 5.4 347 15.1 101770 90
2009-05-25 07:56:14 51°14.951 2°50.613 4.9 347 15.1 101770 89
2009-05-25 07:56:19 51°14.954 2°50.612 4.8 278 15.1 101770 89
2009-05-25 07:56:24 51°14.958 2°50.611 6 347 15.1 101770 90
2009-05-25 07:56:29 51°14.961 2°50.61 5.4 284 15.1 101770 90
2009-05-25 07:56:33 51°14.964 2°50.609 5.2 343 15.1 101770 90
2009-05-25 07:56:39 51°14.968 2°50.609 5.4 283 15.1 101770 90
2009-05-25 07:56:44 51°14.971 2°50.608 5.7 342 15.1 101770 90
2009-05-25 07:56:49 51°14.974 2°50.608 5.2 285 15.1 101770 90
2009-05-25 07:56:54 51°14.977 2°50.609 5.6 339 15.1 101770 90
2009-05-25 07:56:59 51°14.979 2°50.609 4.9 279 15.1 101770 90
2009-05-25 07:57:04 51°14.982 2°50.61 5.5 339 15.1 101770 90
2009-05-25 07:57:09 51°14.984 2°50.611 5.7 284 15.1 101770 90
2009-05-25 07:57:14 51°14.986 2°50.613 5.9 336 15.1 101770 90
2009-05-25 07:57:19 51°14.988 2°50.614 5.4 284 15.1 101770 90
2009-05-25 07:57:24 51°14.989 2°50.616 6 334 15.1 101770 90
2009-05-25 07:57:29 51°14.991 2°50.618 5.9 284 15.1 101770 90
2009-05-25 07:57:34 51°14.992 2°50.62 6.2 332 15.1 101770 91
2009-05-25 07:57:39 51°14.993 2°50.622 5.4 277 15.1 101770 91
2009-05-25 07:57:44 51°14.994 2°50.624 5.9 333 15.1 101770 90
2009-05-25 07:57:48 51°14.995 2°50.626 6.1 280 15.1 101770 90
2009-05-25 07:57:54 51°14.997 2°50.629 5.5 332 15.1 101770 91
2009-05-25 07:57:59 51°14.997 2°50.631 5.9 278 15.1 101770 91
2009-05-25 07:58:04 51°14.998 2°50.634 5.3 329 15.1 101770 90
2009-05-25 07:58:09 51°14.999 2°50.637 6 285 15.1 101770 90
2009-05-25 07:58:14 51°15 2°50.64 5.4 330 15.1 101770 90
2009-05-25 07:58:19 51°15.001 2°50.642 5.9 286 15.1 101770 90
2009-05-25 07:58:24 51°15.002 2°50.645 5.1 329 15.1 101770 90
2009-05-25 07:58:29 51°15.002 2°50.648 5.3 280 15.1 101770 90
2009-05-25 07:58:34 51°15.003 2°50.651 5.1 330 15.1 101770 90
2009-05-25 07:58:39 51°15.003 2°50.654 5.8 281 15.1 101770 90
2009-05-25 07:58:44 51°15.004 2°50.657 6 329 15.1 101770 90
2009-05-25 07:58:49 51°15.005 2°50.661 5.6 277 15.1 101770 90
2009-05-25 07:58:54 51°15.005 2°50.664 6.4 328 15.1 101770 90
2009-05-25 07:58:59 51°15.006 2°50.668 5.6 283 15.1 101770 90
2009-05-25 07:59:04 51°15.006 2°50.672 5.3 328 15.1 101770 90
2009-05-25 07:59:09 51°15.006 2°50.676 5.9 280 15.1 101770 90
2009-05-25 07:59:13 51°15.007 2°50.679 5 327 15.1 101760 90
2009-05-25 07:59:19 51°15.007 2°50.685 5.6 285 15.1 101760 90
2009-05-25 07:59:24 51°15.007 2°50.689 6.1 326 15.2 101760 90
2009-05-25 07:59:29 51°15.008 2°50.694 6 281 15.2 101760 90
2009-05-25 07:59:34 51°15.008 2°50.698 5.6 327 15.2 101760 90
2009-05-25 07:59:39 51°15.008 2°50.703 5.5 284 15.2 101760 90
2009-05-25 07:59:44 51°15.009 2°50.708 5.5 327 15.2 101770 90
2009-05-25 07:59:49 51°15.009 2°50.712 5.5 278 15.2 101770 90
2009-05-25 07:59:54 51°15.009 2°50.717 5.6 326 15.2 101760 90
2009-05-25 07:59:59 51°15.009 2°50.722 5.9 280 15.2 101760 90
2009-05-25 08:00:04 51°15.009 2°50.727 4.9 326 15.2 101760 90
2009-05-25 08:00:08 51°15.009 2°50.731 5 286 15.2 101760 90
2009-05-25 08:00:14 51°15.009 2°50.737 5.3 325 15.2 101760 90
2009-05-25 08:00:19 51°15.009 2°50.742 5.7 284 15.2 101760 90
2009-05-25 08:00:24 51°15.008 2°50.747 4.9 322 15.2 101760 90
2009-05-25 08:00:29 51°15.008 2°50.752 5.2 285 15.2 101760 90
2009-05-25 08:00:34 51°15.007 2°50.757 5.8 323 15.2 101760 90
2009-05-25 08:00:39 51°15.007 2°50.763 5.8 283 15.2 101760 90
2009-05-25 08:00:44 51°15.006 2°50.768 5.6 323 15.2 101760 90
2009-05-25 08:00:49 51°15.006 2°50.773 5.3 281 15.2 101760 90
2009-05-25 08:00:54 51°15.005 2°50.779 5.8 322 15.2 101760 90
2009-05-25 08:00:59 51°15.004 2°50.784 5.2 279 15.2 101760 90
2009-05-25 08:01:04 51°15.003 2°50.79 5.9 320 15.3 101760 90
2009-05-25 08:01:09 51°15.002 2°50.795 5.7 284 15.3 101760 90
2009-05-25 08:01:14 51°15 2°50.801 5.1 320 15.3 101760 90
2009-05-25 08:01:19 51°14.999 2°50.807 6.2 284 15.3 101760 90
2009-05-25 08:01:24 51°14.998 2°50.812 5.4 321 15.3 101760 90
2009-05-25 08:01:29 51°14.996 2°50.818 6.1 285 15.3 101760 90
2009-05-25 08:01:33 51°14.995 2°50.822 5 320 15.3 101760 90
2009-05-25 08:01:39 51°14.993 2°50.829 5.5 278 15.3 101760 90
2009-05-25 08:01:44 51°14.991 2°50.834 5.9 319 15.3 101760 90
2009-05-25 08:01:49 51°14.989 2°50.84 5.3 284 15.3 101760 90
2009-05-25 08:01:54 51°14.987 2°50.845 5.7 317 15.3 101760 90
2009-05-25 08:01:59 51°14.985 2°50.851 5.8 279 15.3 101760 90
2009-05-25 08:02:04 51°14.982 2°50.856 5.8 317 15.3 101760 90
2009-05-25 08:02:09 51°14.98 2°50.862 5.2 279 15.3 101760 90
2009-05-25 08:02:14 51°14.977 2°50.867 5.2 24 15.3 101760 90
2009-05-25 08:02:19 51°14.975 2°50.872 4.6 279 15.3 101760 90
2009-05-25 08:02:24 51°14.972 2°50.877 4.6 315 15.3 101760 90
2009-05-25 08:02:29 51°14.969 2°50.882 5.6 279 15.3 101760 90
2009-05-25 08:02:33 51°14.966 2°50.886 5.1 37 15.3 101760 89
2009-05-25 08:02:39 51°14.962 2°50.892 5.6 285 15.3 101760 89
2009-05-25 08:02:44 51°14.959 2°50.897 5.8 27 15.3 101760 89
2009-05-25 08:02:49 51°14.956 2°50.902 5.1 279 15.3 101760 89
2009-05-25 08:02:54 51°14.952 2°50.907 4.8 33 15.3 101760 89
2009-05-25 08:03:00 51°14.948 2°50.912 5.5 280 15.3 101760 89
2009-05-25 08:03:04 51°14.944 2°50.916 5.7 26 15.3 101760 89
2009-05-25 08:03:09 51°14.941 2°50.921 4.6 285 15.3 101760 89
2009-05-25 08:03:14 51°14.937 2°50.925 5.6 31 15.3 101760 89
2009-05-25 08:03:19 51°14.933 2°50.929 5.5 278 15.3 101760 89
2009-05-25 08:03:24 51°14.928 2°50.933 5.9 26 15.3 101760 89
2009-05-25 08:03:29 51°14.924 2°50.937 4.9 285 15.3 101760 89
2009-05-25 08:03:34 51°14.919 2°50.941 5.6 33 15.3 101760 89
2009-05-25 08:03:39 51°14.915 2°50.945 4.8 282 15.3 101760 89
2009-05-25 08:03:44 51°14.91 2°50.948 4.5 33 15.3 101760 89
2009-05-25 08:03:49 51°14.905 2°50.951 4.5 279 15.3 101760 89
2009-05-25 08:03:53 51°14.901 2°50.953 4.5 26 15.3 101760 89
2009-05-25 08:03:59 51°14.894 2°50.956 5 278 15.3 101760 89
2009-05-25 08:04:04 51°14.888 2°50.958 5.1 27 15.3 101760 89
2009-05-25 08:04:09 51°14.883 2°50.96 5 284 15.3 101760 89
2009-05-25 08:04:14 51°14.877 2°50.962 4.2 19 15.3 101770 89
2009-05-25 08:04:19 51°14.871 2°50.963 4.6 283 15.3 101770 89
2009-05-25 08:04:24 51°14.865 2°50.964 4 22 15.3 101760 89
2009-05-25 08:04:29 51°14.859 2°50.964 4 279 15.3 101760 89
2009-05-25 08:04:34 51°14.853 2°50.964 3.8 22 15.3 101770 89
2009-05-25 08:04:40 51°14.846 2°50.964 4.2 279 15.3 101770 89
2009-05-25 08:04:44 51°14.841 2°50.963 3.9 249 15.3 101770 89
2009-05-25 08:04:49 51°14.834 2°50.962 3.9 280 15.3 101770 89
2009-05-25 08:04:53 51°14.829 2°50.961 3.3 250 15.3 101770 89
2009-05-25 08:04:59 51°14.822 2°50.959 3.7 282 15.3 101770 89
2009-05-25 08:05:04 51°14.816 2°50.957 3.5 254 15.3 101770 89
2009-05-25 08:05:09 51°14.81 2°50.955 4.2 286 15.3 101770 89
2009-05-25 08:05:14 51°14.804 2°50.953 4.1 256 15.4 101770 89
2009-05-25 08:05:19 51°14.798 2°50.95 3.8 284 15.4 101770 89
2009-05-25 08:05:24 51°14.792 2°50.947 3 257 15.4 101770 89
2009-05-25 08:05:29 51°14.786 2°50.944 2.8 278 15.4 101770 89
2009-05-25 08:05:34 51°14.781 2°50.941 2.7 261 15.4 101770 89
2009-05-25 08:05:39 51°14.775 2°50.937 2.9 286 15.4 101770 89
2009-05-25 08:05:44 51°14.769 2°50.934 2.5 260 15.4 101770 89
2009-05-25 08:05:49 51°14.763 2°50.93 2.2 283 15.4 101770 89
2009-05-25 08:05:54 51°14.757 2°50.926 1.8 262 15.4 101770 89
2009-05-25 08:05:59 51°14.752 2°50.921 2.1 284 15.4 101770 89
2009-05-25 08:06:04 51°14.746 2°50.917 2 267 15.4 101780 89
2009-05-25 08:06:09 51°14.741 2°50.912 2 281 15.4 101780 89
2009-05-25 08:06:14 51°14.735 2°50.907 2.1 267 15.5 101770 89
2009-05-25 08:06:19 51°14.73 2°50.902 2.1 286 15.5 101770 89
2009-05-25 08:06:24 51°14.725 2°50.897 1.9 268 15.5 101780 89
2009-05-25 08:06:29 51°14.72 2°50.892 1.9 286 15.5 101780 89
2009-05-25 08:06:34 51°14.715 2°50.887 2 27 15.4 101780 89
2009-05-25 08:06:39 51°14.709 2°50.881 1.8 77 15.4 101780 89
2009-05-25 08:06:44 51°14.705 2°50.876 1.6 30 15.4 101780 89
2009-05-25 08:06:49 51°14.7 2°50.87 1.6 81 15.4 101780 89
2009-05-25 08:06:54 51°14.695 2°50.864 1.6 31 15.5 101780 89
2009-05-25 08:06:59 51°14.69 2°50.858 1.9 75 15.5 101780 89
2009-05-25 08:07:04 51°14.685 2°50.852 1.6 40 15.5 101780 89
2009-05-25 08:07:08 51°14.682 2°50.847 1.8 84 15.5 101780 89
2009-05-25 08:07:14 51°14.676 2°50.84 1.6 40 15.5 101780 89
2009-05-25 08:07:19 51°14.672 2°50.833 1.9 76 15.5 101780 89
2009-05-25 08:07:24 51°14.667 2°50.827 1.6 22 15.5 101780 89
2009-05-25 08:07:29 51°14.663 2°50.82 1.6 74 15.5 101780 89
2009-05-25 08:07:34 51°14.658 2°50.813 1.4 32 15.5 101780 89
2009-05-25 08:07:39 51°14.654 2°50.806 1.4 74 15.5 101780 89
2009-05-25 08:07:44 51°14.65 2°50.799 1.6 24 15.5 101780 89
2009-05-25 08:07:49 51°14.646 2°50.792 1.5 78 15.5 101780 89
2009-05-25 08:07:54 51°14.642 2°50.785 1.5 32 15.5 101780 89
2009-05-25 08:07:59 51°14.638 2°50.778 1.3 83 15.5 101780 89
2009-05-25 08:08:04 51°14.634 2°50.771 1.4 27 15.5 101780 89
2009-05-25 08:08:09 51°14.63 2°50.763 1.4 80 15.5 101780 89
2009-05-25 08:08:14 51°14.627 2°50.756 1.2 31 15.5 101790 89
2009-05-25 08:08:19 51°14.623 2°50.749 1 76 15.5 101790 89
2009-05-25 08:08:24 51°14.619 2°50.742 0.9 21 15.5 101790 89
2009-05-25 08:08:29 51°14.615 2°50.734 1 82 15.5 101790 89
2009-05-25 08:08:33 51°14.612 2°50.728 1 22 15.5 101780 89
2009-05-25 08:08:39 51°14.608 2°50.719 1.3 81 15.5 101780 89
2009-05-25 08:08:44 51°14.604 2°50.712 1.4 23 15.5 101790 89
2009-05-25 08:08:49 51°14.6 2°50.704 1.2 79 15.5 101790 89
2009-05-25 08:08:54 51°14.596 2°50.697 1 24 15.5 101790 89
2009-05-25 08:08:59 51°14.593 2°50.689 1.3 77 15.5 101790 89
2009-05-25 08:09:04 51°14.589 2°50.682 1.4 22 15.5 101790 89
2009-05-25 08:09:09 51°14.586 2°50.674 1.4 81 15.5 101790 89
2009-05-25 08:09:14 51°14.582 2°50.666 1.5 37 15.6 101790 89
2009-05-25 08:09:20 51°14.578 2°50.657 1.5 78 15.6 101790 89
2009-05-25 08:09:24 51°14.575 2°50.651 1.6 19 15.6 101790 89
2009-05-25 08:09:29 51°14.572 2°50.643 1.6 79 15.6 101790 89
2009-05-25 08:09:33 51°14.569 2°50.637 1.6 38 15.6 101790 89
2009-05-25 08:09:40 51°14.565 2°50.626 1.4 74 15.6 101790 89
2009-05-25 08:09:44 51°14.562 2°50.619 1.5 23 15.6 101790 89
2009-05-25 08:09:49 51°14.559 2°50.612 1.6 77 15.6 101790 89
2009-05-25 08:09:54 51°14.556 2°50.604 1.7 40 15.6 101790 88
2009-05-25 08:09:59 51°14.553 2°50.596 1.4 83 15.6 101790 88
2009-05-25 08:10:04 51°14.55 2°50.588 1.6 22 15.6 101790 88
2009-05-25 08:10:09 51°14.547 2°50.58 1.6 81 15.6 101790 88
2009-05-25 08:10:14 51°14.544 2°50.573 1.6 44 15.6 101790 88
2009-05-25 08:10:19 51°14.541 2°50.565 1.3 42 15.6 101790 88
2009-05-25 08:10:24 51°14.538 2°50.557 1.3 41 15.6 101790 88
2009-05-25 08:10:29 51°14.535 2°50.549 1.2 42 15.6 101790 88
2009-05-25 08:10:34 51°14.532 2°50.542 1.1 42 15.6 101790 88
2009-05-25 08:10:39 51°14.529 2°50.534 1.1 45 15.6 101790 88
2009-05-25 08:10:44 51°14.527 2°50.526 1.2 40 15.6 101800 88
2009-05-25 08:10:49 51°14.524 2°50.518 1.2 40 15.6 101800 88
2009-05-25 08:10:54 51°14.521 2°50.511 1.3 40 15.6 101800 88
2009-05-25 08:10:59 51°14.519 2°50.503 1.3 40 15.6 101800 88
2009-05-25 08:11:04 51°14.516 2°50.495 1.3 40 15.6 101790 88
2009-05-25 08:11:09 51°14.513 2°50.488 1.3 40 15.6 101790 88
2009-05-25 08:11:14 51°14.511 2°50.48 1.3 37 15.6 101800 88
2009-05-25 08:11:19 51°14.508 2°50.473 1.3 36 15.6 101800 88
2009-05-25 08:11:24 51°14.505 2°50.465 1.1 36 15.6 101800 88
2009-05-25 08:11:29 51°14.503 2°50.457 1.1 35 15.6 101800 88
2009-05-25 08:11:34 51°14.5 2°50.45 1.1 36 15.6 101800 88
2009-05-25 08:11:39 51°14.498 2°50.442 1.1 36 15.6 101800 88
2009-05-25 08:11:44 51°14.495 2°50.435 1.3 38 15.6 101800 89
2009-05-25 08:11:48 51°14.493 2°50.429 1 37 15.6 101800 89
2009-05-25 08:11:54 51°14.49 2°50.42 1.1 37 15.6 101800 89
2009-05-25 08:11:59 51°14.487 2°50.412 1 36 15.6 101800 89
2009-05-25 08:12:04 51°14.484 2°50.404 1.3 36 15.6 101800 88
2009-05-25 08:12:09 51°14.482 2°50.397 1.3 36 15.6 101800 88
2009-05-25 08:12:14 51°14.479 2°50.389 1.3 39 15.6 101800 89
2009-05-25 08:12:19 51°14.477 2°50.382 1.2 34 15.6 101800 89
2009-05-25 08:12:24 51°14.474 2°50.374 1.3 34 15.6 101800 89
2009-05-25 08:12:29 51°14.472 2°50.366 1.4 35 15.6 101800 89
2009-05-25 08:12:34 51°14.469 2°50.359 1.2 37 15.6 101800 89
2009-05-25 08:12:39 51°14.466 2°50.351 1.3 36 15.6 101800 89
2009-05-25 08:12:44 51°14.464 2°50.344 1.2 36 15.6 101800 89
2009-05-25 08:12:49 51°14.461 2°50.336 1.3 35 15.6 101800 89
2009-05-25 08:12:54 51°14.458 2°50.328 1.2 37 15.6 101800 89
2009-05-25 08:12:59 51°14.456 2°50.321 1.4 35 15.6 101800 89
2009-05-25 08:13:04 51°14.453 2°50.313 1.3 37 15.6 101800 88
2009-05-25 08:13:09 51°14.451 2°50.305 1.3 37 15.6 101800 88
2009-05-25 08:13:13 51°14.449 2°50.299 1.2 37 15.6 101800 88
2009-05-25 08:13:19 51°14.445 2°50.29 1.2 38 15.6 101800 88
2009-05-25 08:13:24 51°14.443 2°50.283 1.3 35 15.6 101800 88
2009-05-25 08:13:29 51°14.44 2°50.275 1.3 34 15.6 101800 88
2009-05-25 08:13:34 51°14.437 2°50.268 1.4 34 15.6 101800 88
2009-05-25 08:13:39 51°14.435 2°50.26 1.2 34 15.6 101800 88
2009-05-25 08:13:44 51°14.432 2°50.252 1.2 35 15.6 101810 88
2009-05-25 08:13:49 51°14.429 2°50.245 1 34 15.6 101810 88
2009-05-25 08:13:54 51°14.427 2°50.237 1.1 33 15.6 101800 88
2009-05-25 08:14:00 51°14.423 2°50.228 1.2 33 15.6 101800 88
2009-05-25 08:14:04 51°14.421 2°50.222 1.1 33 15.7 101800 89
2009-05-25 08:14:09 51°14.418 2°50.214 1.1 33 15.7 101800 89
2009-05-25 08:14:13 51°14.416 2°50.208 1.2 32 15.6 101800 89
2009-05-25 08:14:20 51°14.412 2°50.198 1 32 15.6 101800 89
2009-05-25 08:14:24 51°14.41 2°50.191 1 33 15.7 101800 89
2009-05-25 08:14:29 51°14.407 2°50.184 1.1 32 15.7 101800 89
2009-05-25 08:14:34 51°14.405 2°50.176 1.1 33 15.7 101800 89
2009-05-25 08:14:39 51°14.402 2°50.169 1.1 32 15.7 101800 89
2009-05-25 08:14:44 51°14.399 2°50.161 1.2 35 15.7 101800 89
2009-05-25 08:14:49 51°14.397 2°50.153 1.2 36 15.7 101800 89
2009-05-25 08:14:54 51°14.394 2°50.146 1.2 35 15.7 101800 89
2009-05-25 08:14:59 51°14.391 2°50.138 1.2 36 15.7 101800 89
2009-05-25 08:15:04 51°14.388 2°50.13 1.1 36 15.7 101800 89
2009-05-25 08:15:09 51°14.386 2°50.123 1.1 34 15.7 101800 89
2009-05-25 08:15:14 51°14.383 2°50.115 1.1 36 15.7 101800 88
2009-05-25 08:15:19 51°14.38 2°50.108 1 36 15.7 101800 88
2009-05-25 08:15:24 51°14.378 2°50.1 1 32 15.7 101810 88
2009-05-25 08:15:29 51°14.375 2°50.092 0.9 32 15.7 101810 88
2009-05-25 08:15:34 51°14.372 2°50.084 0.9 32 15.7 101800 88
2009-05-25 08:15:39 51°14.37 2°50.077 0.9 -999 15.7 101800 88
2009-05-25 08:15:44 51°14.367 2°50.069 1 32 15.7 101800 88
2009-05-25 08:15:49 51°14.364 2°50.061 1.1 32 15.7 101800 88
2009-05-25 08:15:54 51°14.362 2°50.054 1.1 35 15.7 101800 88
2009-05-25 08:16:00 51°14.358 2°50.045 1.1 36 15.7 101800 88
2009-05-25 08:16:04 51°14.356 2°50.039 1 34 15.7 101800 88
2009-05-25 08:16:09 51°14.354 2°50.031 1 35 15.7 101800 88
2009-05-25 08:16:14 51°14.351 2°50.023 1 35 15.7 101800 88
2009-05-25 08:16:19 51°14.348 2°50.015 0.9 34 15.7 101800 88
2009-05-25 08:16:24 51°14.346 2°50.007 0.8 34 15.7 101800 88
2009-05-25 08:16:28 51°14.343 2°50.001 0.9 32 15.7 101800 88
2009-05-25 08:16:34 51°14.34 2°49.992 0.8 32 15.7 101800 88
2009-05-25 08:16:39 51°14.338 2°49.984 0.9 -999 15.7 101800 88
2009-05-25 08:16:44 51°14.335 2°49.977 1.2 37 15.7 101800 89
2009-05-25 08:16:49 51°14.332 2°49.969 1.1 35 15.7 101800 89
2009-05-25 08:16:54 51°14.329 2°49.961 1 35 15.7 101800 89
2009-05-25 08:16:59 51°14.327 2°49.953 1.1 34 15.7 101800 89
2009-05-25 08:17:04 51°14.324 2°49.946 0.9 34 15.7 101800 89
2009-05-25 08:17:09 51°14.322 2°49.938 0.9 34 15.7 101800 89
2009-05-25 08:17:14 51°14.319 2°49.93 1 34 15.7 101800 88
2009-05-25 08:17:19 51°14.316 2°49.922 1 33 15.7 101800 88
2009-05-25 08:17:24 51°14.313 2°49.915 0.9 33 15.7 101800 88
2009-05-25 08:17:29 51°14.311 2°49.907 1 32 15.7 101800 88
2009-05-25 08:17:34 51°14.308 2°49.899 1 32 15.7 101800 88
2009-05-25 08:17:39 51°14.305 2°49.891 1 32 15.7 101800 88
2009-05-25 08:17:44 51°14.303 2°49.884 0.9 32 15.7 101800 88
2009-05-25 08:17:49 51°14.3 2°49.876 0.9 32 15.7 101800 88
2009-05-25 08:17:53 51°14.298 2°49.87 0.8 32 15.7 101800 88
2009-05-25 08:17:59 51°14.294 2°49.86 0.8 33 15.7 101800 88
2009-05-25 08:18:04 51°14.292 2°49.853 1 33 15.7 101800 88
2009-05-25 08:18:09 51°14.289 2°49.845 0.9 33 15.7 101800 88
2009-05-25 08:18:14 51°14.286 2°49.837 0.9 32 15.7 101800 88
2009-05-25 08:18:20 51°14.283 2°49.828 1 34 15.7 101800 88
2009-05-25 08:18:24 51°14.281 2°49.822 1.2 33 15.7 101800 88
2009-05-25 08:18:29 51°14.278 2°49.814 1.1 32 15.7 101800 88
2009-05-25 08:18:34 51°14.275 2°49.806 1.2 33 15.7 101800 88
2009-05-25 08:18:40 51°14.272 2°49.797 1.1 32 15.7 101800 88
2009-05-25 08:18:44 51°14.27 2°49.791 1.1 34 15.7 101800 88
2009-05-25 08:18:49 51°14.267 2°49.783 0.9 34 15.7 101800 88
2009-05-25 08:18:53 51°14.265 2°49.776 1 34 15.7 101800 88
2009-05-25 08:18:59 51°14.262 2°49.767 0.9 33 15.7 101800 88
2009-05-25 08:19:04 51°14.259 2°49.759 0.7 32 15.7 101800 88
2009-05-25 08:19:09 51°14.256 2°49.751 0.8 33 15.7 101800 88
2009-05-25 08:19:14 51°14.254 2°49.744 1 33 15.7 101800 88
2009-05-25 08:19:19 51°14.251 2°49.736 1 32 15.7 101800 88
2009-05-25 08:19:24 51°14.248 2°49.728 1 33 15.7 101800 88
2009-05-25 08:19:29 51°14.245 2°49.721 1 32 15.7 101800 88
2009-05-25 08:19:34 51°14.243 2°49.713 1.2 28 15.7 101800 88
2009-05-25 08:19:39 51°14.24 2°49.705 1 -999 15.7 101800 88
2009-05-25 08:19:44 51°14.237 2°49.697 1 27 15.7 101800 88
2009-05-25 08:19:49 51°14.234 2°49.689 0.9 27 15.7 101800 88
2009-05-25 08:19:54 51°14.232 2°49.682 0.9 28 15.7 101800 88
2009-05-25 08:19:59 51°14.229 2°49.674 0.8 27 15.7 101800 88
2009-05-25 08:20:04 51°14.226 2°49.666 0.8 27 15.7 101800 88
2009-05-25 08:20:09 51°14.223 2°49.658 0.8 27 15.7 101800 88
2009-05-25 08:20:13 51°14.221 2°49.652 0.9 21 15.7 101800 88
2009-05-25 08:20:19 51°14.218 2°49.643 0.9 21 15.7 101800 88
2009-05-25 08:20:24 51°14.215 2°49.635 1 21 15.7 101800 88
2009-05-25 08:20:29 51°14.212 2°49.628 1 21 15.7 101800 88
2009-05-25 08:20:34 51°14.21 2°49.62 0.8 21 15.7 101800 88
2009-05-25 08:20:40 51°14.206 2°49.611 0.9 -999 15.7 101800 88
2009-05-25 08:20:44 51°14.204 2°49.604 0.9 21 15.7 101800 88
2009-05-25 08:20:49 51°14.201 2°49.597 1 21 15.7 101800 88
2009-05-25 08:20:54 51°14.198 2°49.589 0.9 21 15.7 101810 88
2009-05-25 08:20:59 51°14.196 2°49.581 0.9 21 15.7 101810 88
2009-05-25 08:21:04 51°14.193 2°49.574 1 21 15.7 101800 88
2009-05-25 08:21:08 51°14.191 2°49.567 1 21 15.7 101800 88
2009-05-25 08:21:14 51°14.187 2°49.558 1.1 21 15.7 101800 88
2009-05-25 08:21:19 51°14.184 2°49.551 1.1 21 15.7 101800 88
2009-05-25 08:21:24 51°14.181 2°49.543 0.9 21 15.7 101800 88
2009-05-25 08:21:29 51°14.179 2°49.535 0.9 21 15.7 101800 88
2009-05-25 08:21:34 51°14.176 2°49.528 1 22 15.7 101810 88
2009-05-25 08:21:39 51°14.173 2°49.52 1 -999 15.7 101810 88
2009-05-25 08:21:44 51°14.17 2°49.512 1.1 21 15.7 101810 88
2009-05-25 08:21:49 51°14.167 2°49.505 1.1 21 15.7 101810 88
2009-05-25 08:21:54 51°14.165 2°49.497 1.2 21 15.7 101810 88
2009-05-25 08:21:59 51°14.162 2°49.489 0.9 21 15.7 101810 88
2009-05-25 08:22:04 51°14.159 2°49.481 1.1 21 15.7 101800 88
2009-05-25 08:22:09 51°14.156 2°49.474 1.1 22 15.7 101800 88
2009-05-25 08:22:14 51°14.153 2°49.466 1.1 21 15.7 101800 88
2009-05-25 08:22:19 51°14.15 2°49.458 1.1 24 15.7 101800 88
2009-05-25 08:22:24 51°14.148 2°49.451 1.1 23 15.7 101810 88
2009-05-25 08:22:29 51°14.145 2°49.443 1.3 23 15.7 101810 88
2009-05-25 08:22:33 51°14.142 2°49.437 1.2 23 15.7 101800 88
2009-05-25 08:22:39 51°14.139 2°49.428 1.1 23 15.7 101800 88
2009-05-25 08:22:44 51°14.136 2°49.42 1.2 23 15.7 101810 88
2009-05-25 08:22:49 51°14.134 2°49.413 1.1 23 15.7 101810 88
2009-05-25 08:22:54 51°14.131 2°49.405 1.1 23 15.7 101810 88
2009-05-25 08:23:00 51°14.127 2°49.396 1.2 23 15.7 101810 88
2009-05-25 08:23:04 51°14.125 2°49.39 1.3 22 15.7 101810 88
2009-05-25 08:23:09 51°14.122 2°49.382 1.2 22 15.7 101810 88
2009-05-25 08:23:14 51°14.12 2°49.375 1.2 22 15.7 101810 88
2009-05-25 08:23:19 51°14.117 2°49.367 1.4 22 15.7 101810 88
2009-05-25 08:23:24 51°14.114 2°49.36 1.2 22 15.7 101810 88
2009-05-25 08:23:29 51°14.112 2°49.352 1.4 22 15.7 101810 88
2009-05-25 08:23:33 51°14.109 2°49.346 1.2 20 15.7 101810 88
2009-05-25 08:23:39 51°14.106 2°49.337 1.3 20 15.7 101810 88
2009-05-25 08:23:44 51°14.103 2°49.329 1.4 20 15.7 101810 88
2009-05-25 08:23:49 51°14.1 2°49.322 1.3 20 15.7 101810 88
2009-05-25 08:23:54 51°14.098 2°49.314 1.3 20 15.7 101810 88
2009-05-25 08:23:59 51°14.095 2°49.307 1.5 16 15.7 101810 88
2009-05-25 08:24:04 51°14.092 2°49.299 1.4 16 15.7 101810 88
2009-05-25 08:24:09 51°14.09 2°49.292 1.3 16 15.7 101810 88
2009-05-25 08:24:14 51°14.087 2°49.284 1.6 14 15.7 101810 88
2009-05-25 08:24:19 51°14.084 2°49.277 1.6 14 15.7 101810 88
2009-05-25 08:24:24 51°14.081 2°49.269 1.3 16 15.7 101810 88
2009-05-25 08:24:29 51°14.079 2°49.262 1.4 17 15.7 101810 88
2009-05-25 08:24:34 51°14.076 2°49.254 1.4 16 15.7 101810 88
2009-05-25 08:24:39 51°14.073 2°49.247 1.4 16 15.7 101810 88
2009-05-25 08:24:44 51°14.071 2°49.239 1.4 16 15.7 101810 88
2009-05-25 08:24:49 51°14.068 2°49.232 1.4 16 15.7 101810 88
2009-05-25 08:24:53 51°14.066 2°49.226 1.5 11 15.7 101820 88
2009-05-25 08:24:59 51°14.062 2°49.217 1.5 10 15.7 101820 88
2009-05-25 08:25:04 51°14.059 2°49.209 1.5 10 15.7 101820 88
2009-05-25 08:25:09 51°14.056 2°49.202 1.5 10 15.7 101820 88
2009-05-25 08:25:14 51°14.054 2°49.194 1.4 11 15.7 101820 88
2009-05-25 08:25:20 51°14.05 2°49.185 1.6 11 15.7 101820 88
2009-05-25 08:25:24 51°14.048 2°49.18 1.6 11 15.6 101820 88
2009-05-25 08:25:29 51°14.045 2°49.172 1.5 11 15.6 101820 88
2009-05-25 08:25:34 51°14.043 2°49.165 1.4 11 15.7 101820 88
2009-05-25 08:25:39 51°14.04 2°49.157 1.5 11 15.7 101820 88
2009-05-25 08:25:44 51°14.037 2°49.15 1.6 10 15.7 101820 89
2009-05-25 08:25:48 51°14.034 2°49.144 1.6 10 15.7 101820 89
2009-05-25 08:25:54 51°14.031 2°49.135 1.7 11 15.7 101820 89
2009-05-25 08:25:59 51°14.028 2°49.128 1.7 11 15.7 101820 89
2009-05-25 08:26:04 51°14.026 2°49.121 1.7 10 15.7 101820 89
2009-05-25 08:26:09 51°14.023 2°49.113 1.6 10 15.7 101820 89
2009-05-25 08:26:14 51°14.02 2°49.106 1.6 10 15.6 101820 88
2009-05-25 08:26:19 51°14.017 2°49.098 1.4 10 15.6 101820 88
2009-05-25 08:26:24 51°14.014 2°49.091 1.7 10 15.6 101820 88
2009-05-25 08:26:29 51°14.011 2°49.084 1.7 10 15.6 101820 88
2009-05-25 08:26:34 51°14.009 2°49.077 1.6 10 15.6 101820 88
2009-05-25 08:26:39 51°14.006 2°49.07 1.7 10 15.6 101820 88
2009-05-25 08:26:44 51°14.003 2°49.062 1.6 10 15.6 101820 89
2009-05-25 08:26:49 51°14 2°49.055 1.6 11 15.6 101820 89
2009-05-25 08:26:54 51°13.997 2°49.048 1.5 10 15.6 101820 89
2009-05-25 08:26:59 51°13.994 2°49.041 1.5 10 15.6 101820 89
2009-05-25 08:27:04 51°13.992 2°49.034 1.8 10 15.6 101830 89
2009-05-25 08:27:09 51°13.989 2°49.026 1.8 11 15.6 101830 89
2009-05-25 08:27:13 51°13.986 2°49.021 1.5 11 15.6 101830 89
2009-05-25 08:27:19 51°13.983 2°49.012 1.7 10 15.6 101830 89
2009-05-25 08:27:24 51°13.98 2°49.005 1.7 10 15.6 101830 89
2009-05-25 08:27:29 51°13.977 2°48.998 1.5 10 15.6 101830 89
2009-05-25 08:27:34 51°13.974 2°48.991 1.5 10 15.6 101830 89
2009-05-25 08:27:40 51°13.971 2°48.982 1.4 11 15.6 101830 89
2009-05-25 08:27:44 51°13.969 2°48.977 1.5 11 15.6 101830 88
2009-05-25 08:27:49 51°13.966 2°48.969 1.5 11 15.6 101830 88
2009-05-25 08:27:54 51°13.963 2°48.962 1.7 10 15.5 101830 88
2009-05-25 08:27:59 51°13.961 2°48.955 1.7 10 15.5 101830 88
2009-05-25 08:28:04 51°13.958 2°48.948 1.7 10 15.5 101830 89
2009-05-25 08:28:09 51°13.955 2°48.941 1.7 10 15.5 101830 89
2009-05-25 08:28:13 51°13.953 2°48.935 1.8 10 15.5 101830 89
2009-05-25 08:28:19 51°13.95 2°48.927 1.7 10 15.5 101830 89
2009-05-25 08:28:24 51°13.947 2°48.92 1.8 10 15.5 101830 89
2009-05-25 08:28:29 51°13.945 2°48.913 1.8 10 15.5 101830 89
2009-05-25 08:28:34 51°13.942 2°48.906 1.7 10 15.5 101830 89
2009-05-25 08:28:39 51°13.94 2°48.899 1.7 10 15.5 101830 89
2009-05-25 08:28:44 51°13.938 2°48.892 1.5 10 15.5 101840 89
2009-05-25 08:28:49 51°13.935 2°48.885 1.8 10 15.5 101840 89
2009-05-25 08:28:54 51°13.933 2°48.878 1.8 3 15.5 101840 89
2009-05-25 08:28:59 51°13.931 2°48.87 1.8 2 15.5 101840 89
2009-05-25 08:29:04 51°13.929 2°48.863 1.6 4 15.5 101830 89
2009-05-25 08:29:09 51°13.927 2°48.856 1.7 2 15.5 101830 89
2009-05-25 08:29:14 51°13.925 2°48.849 1.9 1 15.5 101840 89
2009-05-25 08:29:19 51°13.923 2°48.842 2 359 15.5 101840 89
2009-05-25 08:29:24 51°13.921 2°48.835 2.2 359 15.5 101840 89
2009-05-25 08:29:29 51°13.919 2°48.828 2.3 357 15.5 101840 89
2009-05-25 08:29:33 51°13.918 2°48.822 2 357 15.4 101840 88
2009-05-25 08:29:39 51°13.916 2°48.814 2.1 354 15.4 101840 88
2009-05-25 08:29:44 51°13.915 2°48.807 2.3 355 15.4 101840 89
2009-05-25 08:29:49 51°13.914 2°48.8 2.3 354 15.4 101840 89
2009-05-25 08:29:54 51°13.912 2°48.792 2.4 354 15.4 101840 89
2009-05-25 08:30:00 51°13.911 2°48.784 2.2 354 15.4 101840 89
2009-05-25 08:30:04 51°13.91 2°48.778 2 351 15.4 101840 89
2009-05-25 08:30:09 51°13.909 2°48.771 2.3 278 15.4 101840 89
2009-05-25 08:30:14 51°13.908 2°48.764 2.2 349 15.4 101850 89
2009-05-25 08:30:19 51°13.907 2°48.757 2.3 349 15.4 101850 89
2009-05-25 08:30:24 51°13.906 2°48.75 2.5 348 15.4 101850 89
2009-05-25 08:30:28 51°13.905 2°48.745 2.6 280 15.4 101850 89
2009-05-25 08:30:34 51°13.904 2°48.736 2.6 344 15.4 101850 89
2009-05-25 08:30:39 51°13.904 2°48.729 2.6 -999 15.4 101850 89
2009-05-25 08:30:44 51°13.903 2°48.722 2.5 341 15.4 101850 89
2009-05-25 08:30:49 51°13.902 2°48.715 2.4 281 15.4 101850 89
2009-05-25 08:30:54 51°13.902 2°48.708 2.3 340 15.4 101850 89
2009-05-25 08:30:59 51°13.902 2°48.702 2.6 280 15.4 101850 89
2009-05-25 08:31:04 51°13.901 2°48.695 2.4 335 15.4 101860 89
2009-05-25 08:31:09 51°13.901 2°48.689 2.7 285 15.4 101860 89
2009-05-25 08:31:14 51°13.9 2°48.682 2.6 333 15.4 101850 89
2009-05-25 08:31:19 51°13.9 2°48.676 2.5 284 15.4 101850 89
2009-05-25 08:31:24 51°13.899 2°48.67 2.4 333 15.4 101860 89
2009-05-25 08:31:29 51°13.899 2°48.664 2.4 278 15.4 101860 89
2009-05-25 08:31:34 51°13.899 2°48.658 2.5 330 15.4 101860 90
2009-05-25 08:31:39 51°13.898 2°48.652 2.9 282 15.4 101860 90
2009-05-25 08:31:44 51°13.898 2°48.646 2.5 327 15.4 101860 90
2009-05-25 08:31:49 51°13.898 2°48.64 2.9 284 15.4 101860 90
2009-05-25 08:31:53 51°13.897 2°48.636 2.5 331 15.4 101860 90
2009-05-25 08:32:00 51°13.896 2°48.628 2.7 284 15.4 101860 90
2009-05-25 08:32:04 51°13.896 2°48.623 2.6 328 15.3 101870 90
2009-05-25 08:32:09 51°13.895 2°48.618 2.5 277 15.3 101870 90
2009-05-25 08:32:14 51°13.895 2°48.612 2.9 328 15.4 101870 91
2009-05-25 08:32:20 51°13.894 2°48.606 2.8 279 15.4 101870 91
2009-05-25 08:32:24 51°13.894 2°48.602 3.1 326 15.4 101880 90
2009-05-25 08:32:29 51°13.893 2°48.596 3 279 15.4 101880 90
2009-05-25 08:32:34 51°13.892 2°48.591 2.2 326 15.4 101870 90
2009-05-25 08:32:39 51°13.892 2°48.586 2.6 284 15.4 101870 90
2009-05-25 08:32:44 51°13.891 2°48.581 3 327 15.4 101880 90
2009-05-25 08:32:48 51°13.891 2°48.577 3.1 280 15.4 101880 90
2009-05-25 08:32:54 51°13.89 2°48.571 3 326 15.4 101880 90
2009-05-25 08:32:59 51°13.889 2°48.566 2.9 285 15.4 101880 90
2009-05-25 08:33:04 51°13.889 2°48.561 3.3 320 15.4 101880 90
2009-05-25 08:33:09 51°13.888 2°48.556 2.7 279 15.4 101880 90
2009-05-25 08:33:14 51°13.887 2°48.552 3.2 319 15.4 101880 90
2009-05-25 08:33:19 51°13.886 2°48.547 3.5 285 15.4 101880 90
2009-05-25 08:33:24 51°13.886 2°48.543 3.1 38 15.4 101890 90
2009-05-25 08:33:29 51°13.885 2°48.538 3.8 280 15.4 101890 90
2009-05-25 08:33:34 51°13.884 2°48.534 4 29 15.4 101890 90
2009-05-25 08:33:39 51°13.883 2°48.529 3.5 283 15.4 101890 90
2009-05-25 08:33:44 51°13.883 2°48.525 4.4 23 15.4 101890 90
2009-05-25 08:33:49 51°13.882 2°48.52 4.3 280 15.4 101890 90
2009-05-25 08:33:54 51°13.881 2°48.516 3.9 19 15.4 101890 90
2009-05-25 08:33:59 51°13.88 2°48.512 4.2 278 15.4 101890 90
2009-05-25 08:34:04 51°13.88 2°48.508 4.1 20 15.4 101900 90
2009-05-25 08:34:09 51°13.879 2°48.504 3.5 279 15.4 101900 90
2009-05-25 08:34:13 51°13.878 2°48.5 3.5 231 15.4 101900 90
2009-05-25 08:34:20 51°13.877 2°48.495 3.4 286 15.4 101900 90
2009-05-25 08:34:24 51°13.877 2°48.492 3.4 19 15.4 101900 90
2009-05-25 08:34:29 51°13.876 2°48.488 3.5 281 15.4 101900 90
2009-05-25 08:34:34 51°13.875 2°48.484 4 39 15.4 101900 90
2009-05-25 08:34:40 51°13.875 2°48.479 4.3 285 15.4 101900 90
2009-05-25 08:34:44 51°13.874 2°48.476 3.6 20 15.4 101900 90
2009-05-25 08:34:49 51°13.873 2°48.472 4.3 286 15.4 101900 90
2009-05-25 08:34:54 51°13.872 2°48.468 3.8 34 15.4 101910 90
2009-05-25 08:34:59 51°13.872 2°48.465 3.7 284 15.4 101910 90
2009-05-25 08:35:04 51°13.871 2°48.461 3.9 20 15.4 101910 90
2009-05-25 08:35:09 51°13.87 2°48.458 2.6 284 15.4 101910 90
2009-05-25 08:35:14 51°13.869 2°48.454 4.6 235 15.4 101910 90
2009-05-25 08:35:19 51°13.868 2°48.45 3.9 285 15.4 101910 90
2009-05-25 08:35:24 51°13.868 2°48.447 4.9 20 15.4 101910 90
2009-05-25 08:35:29 51°13.867 2°48.443 4.9 279 15.4 101910 90
2009-05-25 08:35:34 51°13.866 2°48.44 4.2 238 15.4 101920 90
2009-05-25 08:35:39 51°13.865 2°48.437 4.4 -999 15.4 101920 90
2009-05-25 08:35:44 51°13.864 2°48.433 5.5 19 15.4 101920 90
2009-05-25 08:35:49 51°13.864 2°48.43 5.3 278 15.4 101920 90
2009-05-25 08:35:54 51°13.863 2°48.427 5.3 20 15.4 101920 90
2009-05-25 08:35:59 51°13.862 2°48.424 5.5 286 15.4 101920 90
2009-05-25 08:36:04 51°13.861 2°48.421 5.4 25 15.4 101920 90
2009-05-25 08:36:09 51°13.86 2°48.418 5.3 285 15.4 101920 90
2009-05-25 08:36:14 51°13.86 2°48.415 4.7 244 15.4 101930 90
2009-05-25 08:36:19 51°13.859 2°48.412 4.7 280 15.4 101930 90
2009-05-25 08:36:24 51°13.858 2°48.409 4.8 22 15.4 101930 91
2009-05-25 08:36:28 51°13.857 2°48.407 5 285 15.4 101930 91
2009-05-25 08:36:34 51°13.856 2°48.403 6 246 15.4 101930 91
2009-05-25 08:36:39 51°13.856 2°48.401 5 281 15.4 101930 91
2009-05-25 08:36:44 51°13.855 2°48.398 5.9 248 15.4 101930 91
2009-05-25 08:36:49 51°13.854 2°48.395 5.6 283 15.4 101930 91
2009-05-25 08:36:54 51°13.853 2°48.393 5.7 248 15.4 101940 90
2009-05-25 08:36:59 51°13.852 2°48.39 5.6 285 15.4 101940 90
2009-05-25 08:37:04 51°13.851 2°48.387 4.8 250 15.4 101930 91
2009-05-25 08:37:09 51°13.85 2°48.384 5.4 285 15.4 101930 91
2009-05-25 08:37:14 51°13.85 2°48.382 5.9 252 15.4 101940 91
2009-05-25 08:37:19 51°13.848 2°48.379 5.2 278 15.4 101940 91
2009-05-25 08:37:24 51°13.848 2°48.377 5.7 255 15.4 101940 91
2009-05-25 08:37:29 51°13.847 2°48.374 6.5 281 15.4 101940 91
2009-05-25 08:37:34 51°13.846 2°48.372 6.7 255 15.4 101940 91
2009-05-25 08:37:39 51°13.845 2°48.369 7 285 15.4 101940 91
2009-05-25 08:37:44 51°13.844 2°48.367 6.7 256 15.5 101940 91
2009-05-25 08:37:49 51°13.843 2°48.365 7 279 15.5 101940 91
2009-05-25 08:37:53 51°13.842 2°48.363 7.3 259 15.4 101940 91
2009-05-25 08:37:59 51°13.841 2°48.36 6.4 282 15.4 101940 91
2009-05-25 08:38:04 51°13.84 2°48.358 7.6 257 15.4 101950 91
2009-05-25 08:38:09 51°13.839 2°48.356 6.2 285 15.4 101950 91
2009-05-25 08:38:14 51°13.838 2°48.353 7 256 15.5 101950 91
2009-05-25 08:38:19 51°13.837 2°48.351 5.8 278 15.5 101950 91
2009-05-25 08:38:24 51°13.836 2°48.349 5.9 257 15.5 101940 91
2009-05-25 08:38:29 51°13.835 2°48.346 5.8 285 15.5 101940 91
2009-05-25 08:38:34 51°13.835 2°48.344 5.6 256 15.5 101940 91
2009-05-25 08:38:40 51°13.833 2°48.342 6.7 279 15.5 101940 91
2009-05-25 08:38:44 51°13.832 2°48.34 6.6 258 15.5 101950 91
2009-05-25 08:38:49 51°13.831 2°48.338 6.8 278 15.5 101950 91
2009-05-25 08:38:53 51°13.831 2°48.336 5.7 258 15.5 101950 91
2009-05-25 08:39:00 51°13.829 2°48.334 6.5 283 15.5 101950 91
2009-05-25 08:39:04 51°13.828 2°48.332 6.6 258 15.5 101940 91
2009-05-25 08:39:09 51°13.827 2°48.33 6.5 279 15.5 101940 91
2009-05-25 08:39:14 51°13.826 2°48.328 6.6 257 15.4 101950 91
2009-05-25 08:39:19 51°13.825 2°48.326 5.5 284 15.4 101950 91
2009-05-25 08:39:24 51°13.824 2°48.324 6.6 258 15.5 101940 91
2009-05-25 08:39:29 51°13.823 2°48.322 6.2 286 15.5 101940 91
2009-05-25 08:39:34 51°13.822 2°48.32 6.2 258 15.4 101940 91
2009-05-25 08:39:39 51°13.821 2°48.318 6 279 15.4 101940 91
2009-05-25 08:39:44 51°13.82 2°48.316 5 258 15.4 101940 91
2009-05-25 08:39:49 51°13.819 2°48.314 6 284 15.4 101940 91
2009-05-25 08:39:54 51°13.817 2°48.312 5.1 258 15.4 101940 91
2009-05-25 08:39:59 51°13.816 2°48.311 5.4 279 15.4 101940 91
2009-05-25 08:40:04 51°13.815 2°48.309 5.3 258 15.4 101940 91
2009-05-25 08:40:09 51°13.814 2°48.307 5.4 279 15.4 101940 91
2009-05-25 08:40:14 51°13.813 2°48.305 5.8 259 15.4 101940 91
2009-05-25 08:40:19 51°13.812 2°48.303 4.9 283 15.4 101940 91
2009-05-25 08:40:24 51°13.81 2°48.301 4.3 260 15.4 101940 91
2009-05-25 08:40:29 51°13.809 2°48.299 5.1 279 15.4 101940 91
2009-05-25 08:40:34 51°13.808 2°48.297 4.9 261 15.4 101940 91
2009-05-25 08:40:39 51°13.807 2°48.295 4.5 286 15.4 101940 91
2009-05-25 08:40:44 51°13.805 2°48.294 5 260 15.4 101940 91
2009-05-25 08:40:49 51°13.804 2°48.292 5.6 280 15.4 101940 91
2009-05-25 08:40:53 51°13.803 2°48.29 4.9 258 15.4 101940 91
2009-05-25 08:40:59 51°13.802 2°48.288 5.4 278 15.4 101940 91
2009-05-25 08:41:04 51°13.8 2°48.286 5.5 258 15.4 101940 91
2009-05-25 08:41:09 51°13.799 2°48.284 4.4 285 15.4 101940 91
2009-05-25 08:41:14 51°13.798 2°48.282 4.9 260 15.4 101940 91
2009-05-25 08:41:20 51°13.796 2°48.28 5.5 279 15.4 101940 91
2009-05-25 08:41:24 51°13.795 2°48.278 4.3 260 15.4 101940 91
2009-05-25 08:41:29 51°13.794 2°48.276 3.8 279 15.4 101940 91
2009-05-25 08:41:34 51°13.793 2°48.274 4.7 258 15.4 101930 91
2009-05-25 08:41:40 51°13.791 2°48.272 4.5 285 15.4 101930 91
2009-05-25 08:41:44 51°13.79 2°48.27 3.6 262 15.4 101930 91
2009-05-25 08:41:49 51°13.789 2°48.268 4.1 278 15.4 101930 91
2009-05-25 08:41:54 51°13.787 2°48.266 4.2 262 15.4 101930 91
2009-05-25 08:41:59 51°13.786 2°48.264 4.3 278 15.4 101930 91
2009-05-25 08:42:04 51°13.785 2°48.262 4.3 261 15.4 101930 91
2009-05-25 08:42:08 51°13.784 2°48.261 4.4 283 15.4 101930 91
2009-05-25 08:42:14 51°13.782 2°48.258 4.3 259 15.4 101930 91
2009-05-25 08:42:19 51°13.781 2°48.257 4.9 285 15.4 101930 91
2009-05-25 08:42:24 51°13.779 2°48.255 4.3 260 15.4 101930 91
2009-05-25 08:42:28 51°13.778 2°48.253 4.7 279 15.4 101930 91
2009-05-25 08:42:34 51°13.776 2°48.251 4.3 260 15.4 101920 91
2009-05-25 08:42:39 51°13.775 2°48.249 4.4 285 15.4 101920 91
2009-05-25 08:42:44 51°13.774 2°48.247 4.4 258 15.4 101920 91
2009-05-25 08:42:49 51°13.772 2°48.245 4.5 285 15.4 101920 91
2009-05-25 08:42:54 51°13.771 2°48.243 5.1 259 15.4 101920 91
2009-05-25 08:42:59 51°13.769 2°48.241 4 279 15.4 101920 91
2009-05-25 08:43:04 51°13.768 2°48.239 4.7 259 15.4 101920 91
2009-05-25 08:43:09 51°13.767 2°48.237 3.8 284 15.4 101920 91
2009-05-25 08:43:14 51°13.765 2°48.235 4.1 258 15.4 101920 91
2009-05-25 08:43:19 51°13.764 2°48.233 4.4 279 15.4 101920 91
2009-05-25 08:43:24 51°13.762 2°48.232 4.9 258 15.4 101920 91
2009-05-25 08:43:29 51°13.761 2°48.23 5.1 283 15.4 101920 91
2009-05-25 08:43:33 51°13.759 2°48.228 4.8 259 15.3 101920 91
2009-05-25 08:43:39 51°13.758 2°48.226 4.9 280 15.3 101920 91
2009-05-25 08:43:44 51°13.756 2°48.224 4.8 260 15.3 101920 91
2009-05-25 08:43:49 51°13.755 2°48.222 4 285 15.3 101920 91
2009-05-25 08:43:54 51°13.753 2°48.22 4.1 260 15.4 101920 91
2009-05-25 08:43:59 51°13.752 2°48.219 4.3 285 15.4 101920 91
2009-05-25 08:44:04 51°13.75 2°48.217 4.5 260 15.3 101920 91
2009-05-25 08:44:09 51°13.749 2°48.215 4.9 280 15.3 101920 91
2009-05-25 08:44:14 51°13.747 2°48.213 3.7 261 15.3 101920 91
2009-05-25 08:44:19 51°13.746 2°48.211 4 279 15.3 101920 91
2009-05-25 08:44:24 51°13.744 2°48.209 5.6 256 15.3 101920 91
2009-05-25 08:44:29 51°13.743 2°48.208 4 281 15.3 101920 91
2009-05-25 08:44:34 51°13.741 2°48.206 3.6 259 15.3 101920 91
2009-05-25 08:44:39 51°13.74 2°48.204 3.8 282 15.3 101920 91
2009-05-25 08:44:44 51°13.738 2°48.202 2.9 263 15.3 101920 91
2009-05-25 08:44:49 51°13.736 2°48.2 2.7 286 15.3 101920 91
2009-05-25 08:44:53 51°13.735 2°48.199 4.2 261 15.3 101920 91
2009-05-25 08:44:59 51°13.733 2°48.197 3.6 285 15.3 101920 91
2009-05-25 08:45:04 51°13.732 2°48.195 2.8 263 15.3 101910 91
2009-05-25 08:45:09 51°13.73 2°48.193 3.3 280 15.3 101910 91
2009-05-25 08:45:14 51°13.729 2°48.192 3.1 266 15.3 101920 91
2009-05-25 08:45:20 51°13.727 2°48.189 3.5 281 15.3 101920 91
2009-05-25 08:45:24 51°13.726 2°48.188 3.9 267 15.3 101920 91
2009-05-25 08:45:29 51°13.724 2°48.186 3.2 279 15.3 101920 91
2009-05-25 08:45:34 51°13.722 2°48.185 3.8 267 15.3 101920 91
2009-05-25 08:45:39 51°13.721 2°48.183 2.8 285 15.3 101920 91
2009-05-25 08:45:44 51°13.719 2°48.181 3.7 267 15.3 101920 91
2009-05-25 08:45:48 51°13.718 2°48.179 3 278 15.3 101920 91
2009-05-25 08:45:54 51°13.716 2°48.177 3.1 265 15.3 101920 91
2009-05-25 08:45:59 51°13.714 2°48.175 3.2 283 15.3 101920 91
2009-05-25 08:46:04 51°13.713 2°48.173 4.6 268 15.3 101920 91
2009-05-25 08:46:09 51°13.711 2°48.171 4 279 15.3 101920 91
2009-05-25 08:46:14 51°13.71 2°48.17 3.6 266 15.3 101920 91
2009-05-25 08:46:19 51°13.708 2°48.168 4.5 279 15.3 101920 91
2009-05-25 08:46:24 51°13.706 2°48.166 3.9 267 15.3 101920 91
2009-05-25 08:46:29 51°13.705 2°48.164 3.8 279 15.3 101920 91
2009-05-25 08:46:34 51°13.703 2°48.162 3.6 267 15.3 101930 91
2009-05-25 08:46:39 51°13.702 2°48.161 3.4 286 15.3 101930 91
2009-05-25 08:46:44 51°13.7 2°48.159 3.8 267 15.3 101930 91
2009-05-25 08:46:49 51°13.698 2°48.157 4.2 286 15.3 101930 91
2009-05-25 08:46:54 51°13.697 2°48.155 4.4 268 15.3 101930 91
2009-05-25 08:46:59 51°13.695 2°48.153 4.4 280 15.3 101930 91
2009-05-25 08:47:04 51°13.694 2°48.151 4.5 269 15.3 101930 91
2009-05-25 08:47:09 51°13.692 2°48.15 4.5 279 15.3 101930 91
2009-05-25 08:47:13 51°13.691 2°48.148 4.9 269 15.3 101930 91
2009-05-25 08:47:19 51°13.689 2°48.146 4.9 284 15.3 101930 91
2009-05-25 08:47:24 51°13.687 2°48.144 4.9 268 15.3 101940 91
2009-05-25 08:47:29 51°13.685 2°48.142 5.2 284 15.3 101940 91
2009-05-25 08:47:34 51°13.684 2°48.141 5 269 15.3 101940 91
2009-05-25 08:47:40 51°13.682 2°48.138 5 278 15.3 101940 91
2009-05-25 08:47:44 51°13.68 2°48.137 5 269 15.3 101940 91
2009-05-25 08:47:49 51°13.679 2°48.135 5.7 286 15.3 101940 91
2009-05-25 08:47:54 51°13.677 2°48.134 5.2 270 15.3 101940 91